{"data":{"norad_id":56427,"epoch":"2026-09-20T00:09:41.476320Z","epoch_age_seconds":154630,"freshness":"FRESH","line1":"1 56427U 23061BF  26263.00673005 -.00000189  00000+0  26477-5 0  9995","line2":"2 56427  43.0020 162.5094 0001249 263.8705  96.2005 15.27574383186674","mean_motion":15.27574383,"eccentricity":0.0001249,"inclination_deg":43.002,"raan_deg":162.5094,"arg_perigee_deg":263.8705,"mean_anomaly_deg":96.2005,"bstar":2.6477e-6,"rev_number":18667,"period_min":94.267095339213,"perigee_km":482.20895116576,"apogee_km":483.92287965403,"semimajor_km":6861.2029154099,"source":"CELESTRAK","updated_at":"2026-09-21T09:00:33.440089Z"}}